Hourly Data Report for October 30, 2016

All times are specified in Local Standard Time (LST). Add 1 hour to adjust for Daylight Saving Time where and when it is observed.

KAMLOOPS A
BRITISH COLUMBIA

50°42'09.000" N
120°26'55.000" W
345.30 m
1163781
71887
YKA

Download Data

Hourly Data (October 2016)
Hourly Data Report for October 30, 2016
Temp Definition
°C
Dew Point Temp Definition
°C
Rel Hum Definition
%
Wind Dir Definition
10's deg

Wind Spd Definition
km/h
Visibility Definition
km
Stn Press Definition
kPa
Hmdx Definition


Wind Chill Definition


Weather Definition


TIME
00:00 Legend Double Dagger 5.6 4.1 90 11 6 48.3 97.39     LegendNANA
01:00 Legend Double Dagger 4.8 3.0 88 23 5 40.2 97.39     Mostly Cloudy
02:00 Legend Double Dagger 4.3 3.3 93 31 7 32.2 97.39     LegendNANA
03:00 Legend Double Dagger 4.4 3.4 93 31 4 40.2 97.34     LegendNANA
04:00 Legend Double Dagger 4.7 3.8 94 14 8 16.1 97.33     Cloudy
05:00 Legend Double Dagger 4.2 3.3 94 14 4 16.1 97.35     LegendNANA
06:00 Legend Double Dagger 3.9 3.2 95 11 7 16.1 97.37     LegendNANA
07:00 Legend Double Dagger 3.6 2.6 93 8 5 32.2 97.35     Cloudy
08:00 Legend Double Dagger 4.5 3.0 90 10 7 32.2 97.30     LegendNANA
09:00 Legend Double Dagger 5.2 3.7 90 5 7 32.2 97.28     LegendNANA
10:00 Legend Double Dagger 5.8 3.7 86 4 6 32.2 97.20     Cloudy
11:00 Legend Double Dagger 6.5 3.8 83 7 3 32.2 97.16     LegendNANA
12:00 Legend Double Dagger 6.9 3.9 81 18 6 32.2 97.02     LegendNANA
13:00 Legend Double Dagger 7.6 4.0 78 36 3 40.2 96.90     Mostly Cloudy
14:00 Legend Double Dagger 7.8 4.2 78 30 3 48.3 96.81     LegendNANA
15:00 Legend Double Dagger 7.7 3.9 77 29 8 64.4 96.69     LegendNANA
16:00 Legend Double Dagger 7.2 4.2 81 27 12 64.4 96.60     Mostly Cloudy
17:00 Legend Double Dagger 7.1 3.9 80 27 10 64.4 96.51     LegendNANA
18:00 Legend Double Dagger 7.0 3.4 78 26 10 64.4 96.46     LegendNANA
19:00 Legend Double Dagger 6.8 3.8 81 26 11 64.4 96.40     Cloudy
20:00 Legend Double Dagger 6.7 3.9 82 27 9 64.4 96.32     LegendNANA
21:00 Legend Double Dagger 6.6 3.8 82 27 10 48.3 96.28     LegendNANA
22:00 Legend Double Dagger 6.2 4.0 86 29 8 48.3 96.25     Cloudy
23:00 Legend Double Dagger 6.2 4.0 86 30 6 64.4 96.24     LegendNANA

Notes on Data Quality.

Legend

  • E = Estimated
  • M = Missing
  • NA = Not Available
  • ‡ = Partner data that is not subject to review by the National Climate Archives
Date modified: